AEROCUBE 7

导读

AEROCUBE 7是美国研发的一颗微小卫星,于2015年10月8日发射升空,属于AeroCube系列立方星,该系列由美国航空航天公司主导开发,主要用于开展航天技术试验。 作为低成本小卫星项目,它验证了新型空间成像、自主在轨操作等多项前沿技术,推进了纳米卫星技术在空间任务中的应用,为后续小卫星技术发展积累了宝贵的实测数据,为美国立方星商业化和技术迭代提供了实践支撑。

Basic Information
目录编号:
40966
目录名称:
AEROCUBE 7
国际标识:
2015-058C
轨道中心:
EARTH
卫星名称:
AEROCUBE 7
卫星全名:
--
卫星状态:
在轨 (已飞行3985 天)
发射日期:
2015-10-08 UTC
国别 :
美国 (US)
星等 :
--
Orbit Information
数据来源 国际轨道数据
星历时间: 2026-09-05T18:51:23+0800
7小时前
查看轨道信息
半长轴: 6956.585km
偏心率: 0.0126334
轨道倾角: 64.763°
近地点辐角 31.004°
升交点赤经 353.288°
平近点角 329.845°
近地点: 490.562km
远地点: 666.334km
周期: 96.240分钟
每日圈数: 14.962656
Detailed Information
使用方式:
暂无
2D Orbit Map
3D Orbit Map
Orbit Altitude Analysis Chart
Orbit Inclination Analysis Chart
Orbit Comprehensive Analysis Chart
View Comprehensive Chart
Conjunction Data List
Event ID Objects TCA Miss Dist (km) Collision Risk Probability Collision Risk Index (CRI) Action
CDM_260906-112202-950604-096628
2026-09-06T
11:22:31+0000
2.391 km
极远距离
1.464776E-6 低风险 0.38